#timestamp,LO_Frequency,Hit,StdDev 
1623009615.8,286047000.0,N
1623009635.7,286047000.1,N
1623009655.5,286047000.4,N
1623009675.4,286047002.5,N
1623009695.2,286047001.5,N
1623009715.0,286047003.9,Y
1623009715.9,286047003.9,P
1623009735.8,286047000.0,N
1623009755.6,286047002.2,N
1623009775.5,286047001.7,N
1623009795.3,286047002.4,N
1623009815.1,286047002.8,N
1623009835.9,286047002.2,N
1623009855.7,286047000.0,N
1623009875.5,286047002.0,N
1623009895.4,286047001.6,N
1623009915.2,286047001.0,N
1623009935.0,286046999.7,N
1623009936.0,286046999.7,N
1623009955.8,286046999.8,N
1623009975.6,286047002.2,N
1623009995.5,286047002.5,N
1623010015.3,286047002.2,N
1623010035.1,286047001.8,N
1623010055.9,286047002.6,N
1623010075.7,286047000.0,N
1623010095.5,286047000.2,N
1623010115.4,286047000.2,N
1623010135.2,286047000.9,N
1623010155.1,286047002.2,N
1623010156.0,286047002.2,N
1623010175.8,286047001.5,N
1623010195.6,286047000.4,N
1623010215.5,286046998.1,N
1623010235.3,286047001.1,N
1623010255.1,286046998.1,N
1623010275.9,286046998.9,N
1623010295.7,286046996.5,N
1623010315.6,286046996.7,N
1623010335.4,286046996.5,N
1623010355.2,286046999.0,N
1623010375.1,286046997.2,N
1623010376.0,286046997.2,N
1623010395.8,286046995.1,N
1623010415.6,286046995.4,N
1623010435.5,286046995.5,N
1623010455.3,286046995.0,N
1623010475.2,286046997.7,N
1623010495.9,286046996.1,N
1623010515.7,286046996.3,N
1623010535.6,286046994.5,N
1623010555.4,286046994.7,N
1623010575.2,286046994.5,N
1623010595.1,286046993.7,N
1623010596.0,286046993.7,N
1623010615.8,286046994.5,N
1623010635.7,286046994.5,N
1623010655.5,286046994.4,N
1623010675.3,286046994.8,N
1623010695.2,286046993.8,N
1623010715.0,286046993.9,N
1623010715.9,286046993.9,N
1623010735.8,286046992.1,Y
1623010755.6,286046999.6,P
1623010775.4,286046997.4,N
1623010795.3,286046995.1,P
1623010815.1,286046995.5,N
1623010835.8,286046995.8,N
1623010855.7,286046993.4,Y
1623010875.5,286046998.6,P
1623010895.4,286046999.3,N
1623010915.2,286046998.7,N
1623010935.0,286046996.9,Y
1623010935.9,286046996.9,P
1623010955.8,286046998.8,N
1623010975.6,286046998.1,N
1623010995.5,286047001.0,N
1623011015.3,286047001.2,N
1623011035.1,286047001.0,N
1623011055.9,286047000.6,N
1623011075.7,286047000.8,N
1623011095.5,286046998.1,N
1623011115.4,286047000.5,N
1623011135.2,286047000.6,N
1623011155.1,286047000.1,N
1623011156.0,286047000.1,N
1623011175.8,286047000.3,N
1623011195.6,286047002.7,N
1623011215.5,286047000.2,N
1623011235.3,286047000.1,N
1623011255.1,286046998.2,N
1623011275.9,286046998.3,N
1623011295.7,286046999.5,N
1623011315.6,286046996.5,N
1623011335.4,286046996.9,N
1623011355.2,286046997.9,N
1623011375.1,286046997.5,N
1623011376.0,286046997.5,N
1623011395.8,286046997.2,N
1623011415.6,286046998.7,N
1623011435.5,286046998.7,N
1623011455.3,286046999.3,N
1623011475.2,286046996.6,N
1623011495.9,286046996.6,N
1623011515.7,286046997.2,N
1623011535.6,286046996.5,N
1623011555.4,286046999.2,N
1623011575.2,286046997.1,N
1623011595.1,286046999.0,N
1623011596.0,286046999.0,N
1623011615.8,286047000.7,N
1623011635.7,286047000.7,N
1623011655.5,286047000.2,N
1623011675.3,286047011.9,Y
1623011695.2,286047004.0,P
1623011715.0,286047003.6,N
1623011715.9,286047003.6,N
1623011735.7,286047005.6,N
1623011755.6,286047005.8,N
1623011775.4,286047003.1,N
1623011795.3,286047003.4,N
1623011815.1,286047001.4,N
1623011816.0,286047001.4,N
1623011835.8,286047004.1,N
1623011855.7,286047006.0,Y
1623011875.5,286047000.3,P
1623011895.3,286047000.7,N
1623011915.2,286046998.2,N
1623011935.0,286046996.8,N
1623011935.9,286046996.8,N
1623011955.8,286047000.4,N
1623011975.6,286047001.0,N
1623011995.4,286046997.0,N
1623012045.3,286046997.7,E
1623012055.2,286046997.2,N
1623012075.1,286046999.3,P
1623012076.0,286046999.3,N
1623012095.8,286047000.6,N
1623012115.6,286046999.7,N
1623012135.5,286047000.9,N
1623012155.3,286047002.2,N
1623012175.1,286047004.0,N
1623012195.9,286047005.9,Y
1623012215.7,286047003.1,P
1623012235.6,286047003.5,N
1623012255.4,286047003.7,N
1623012275.2,286047006.0,Y
1623012295.1,286047000.6,P
1623012296.0,286047000.6,N
1623012315.8,286047000.1,N
1623012335.7,286047001.5,N
1623012355.5,286047001.7,N
1623012375.3,286047001.3,N
1623012395.2,286047004.4,Y
1623012415.0,286047002.7,P
1623012415.9,286047002.7,P
1623012435.8,286047002.6,P
1623012455.6,286047001.1,N
1623012475.4,286047001.0,N
1623012495.3,286047000.7,N
1623012515.1,286047002.0,N
1623012535.8,286047002.8,Y
1623012555.7,286047002.2,P
1623012575.5,286046999.7,N
1623012595.4,286047000.0,N
1623012615.2,286047000.2,N
1623012635.0,286047001.1,N
1623012635.9,286047001.1,N
1623012655.8,286046999.8,N
1623012675.6,286047000.2,N
1623012695.5,286047002.5,N
1623012715.3,286047000.7,N
1623012735.1,286046999.7,N
1623012755.9,286047000.4,N
1623012775.7,286047000.4,N
1623012795.5,286047000.1,N
1623012815.4,286046999.8,N
1623012835.2,286047001.9,N
1623012855.1,286047001.5,N
1623012856.0,286047001.5,N
1623012875.8,286047004.3,Y
1623012895.6,286046999.7,P
1623012915.5,286046999.9,N
1623012935.3,286046999.9,N
1623012955.2,286047002.5,Y
1623012975.9,286047001.4,P
1623012995.7,286047001.4,N
1623013015.6,286047002.7,P
1623013035.4,286047001.6,N
1623013055.3,286047002.2,N
1623013075.1,286047001.7,N
1623013076.0,286047001.7,N
1623013095.8,286047001.3,N
1623013115.7,286047001.9,N
1623013135.5,286047002.6,Y
1623013155.3,286047000.4,P
1623013175.2,286047001.2,N
1623013195.0,286047000.8,N
1623013195.9,286047000.8,N
